Location: Alexandria
(38.8050°N, 77.0470°W)
Time: 10:46:45
(UTC-05:00)

Envisat - Pass Details

Date: 17 February 2018
Orbit: 764 x 766 km, 98.2° (Epoch: 24 February)

Event Time Altitude Azimuth Distance (km) Brightness Sun altitude
Exits shadow 19:40:26 - 167° (SSE) 2,765 5.7 -22.5°
Reaches altitude 10° 19:41:36 10° 167° (SSE) 2,294 5.3 -22.7°
Maximum altitude 19:46:40 86° 256° (WSW) 772 2.9 -23.7°
Drops below altitude 10° 19:51:46 10° 346° (NNW) 2,309 5.7 -24.7°
Sets 19:54:05 0° 347° (NNW) 3,239 6.5 -25.2°
